Showing default

COSMOS 2501 (GLONASS), 40315

Orbit data source: Space-Track

COSMOS 2501 (GLONASS), 40315 is a Commonwealth of Independent States-origin payload satellite in MEO that was launched on Sun, 30 Nov 2014 UTC via a SOYUZ-2-1B launch vehicle from the Plesetsk Missile And Space Complex (PKMTR). Payload-class satellites include a variety of spacecraft equipped with specific instruments for various scientific and technological missions. These include communications satellites like Starlink; space stations such as the ISS; scientific satellites like the Hubble; Earth observation satellites from companies like Planet Labs, Umbra, and HawkEye 360; GPS; miniature CubeSats for education and research; and military/defense satellites.

Loading next visibility...
Identifier
40315, 2014-075A
Orbit
MEO
Country
Flag of CISCIS
Related business
Manufacturer
Resehetnev ISS
Mission
Operational Defense Navigation
Bus & Motor
EKSPRESS-1000, AOCS
Mass
974 kg wet, ~800 kg dry
Launch date (UTC)
2014-11-30 (11 years ago)
Launch vehicle
SOYUZ-2-1B
Launch site
Plesetsk Missile And Space Complex (PKMTR)
Object type
Payload
Rocket body
Debris
Shape & HBR
Box + 2 Pan, 2.5 m
Radar Cross Section
3.585 m², Large (>1 m²)

Expand to show TLE details & history
Last TLE update: 4 days ago

TLE from 4 days ago
0 COSMOS 2501 (GLONASS)
1 40315U 14075A   25309.93332056  .00000060  00000-0  00000-0 0  9996
2 40315  63.6136 198.0997 0020431 206.3908 153.5918  2.13101274 85096
Epoch: 2025-11-05T22:23Z
TLE epoch observation values (Epoch: 2025-11-05T22:23:58.896Z)
Latitude
-0°
Longitude
176.70425°
Altitude
19,177.175 km
Speed
3.946 km/s
True Right ascension
13h 12m 23s
True Declination
0° 00' 00"
Sunlit
Object was in daylight at epoch
Visualization orbit readout
Latitude
Unknown
Longitude
Unknown
Altitude
Unknown
Speed
Unknown
Apparent Right ascension
Unknown
Apparent Declination
Unknown
Sunlit
N/A
Visualization observer readout
Local Sidereal Time
08:39:51
Azimuth
Unknown
Elevation
Unknown
Doppler factor
Unknown
Orbital elements
Apogee altitude
19,181.724 km
Perigee altitude
19,077.494 km
Semi-major axis
25,507.746 km
Eccentricity
0.00204
Inclination
63.6136°
RAAN
198.0997°
Arg. of periapsis
206.3908°
True anomaly
153.69569°
Mean anomaly
153.5918°
Eccentric anomaly
153.64377°
Mean motion
0.53276 °/min
Orbital period
675.72 mins
BSTAR
0
Loading maneuver chart data...
Computing Atmospheric mass density...
Loading historical data...
Loading historical data...
Loading historical data...
Loading historical data...
Loading historical data...
Loading historical data...
Loading historical data...
Other satellites on launch #75 in the year 2014 (2014-11-30 UTC)

Documentation

Showing up to 5 results
|